Date,TemperatureHighF,TemperatureAvgF,TemperatureLowF,DewpointHighF,DewpointAvgF,DewpointLowF,HumidityHigh,HumidityAvg,HumidityLow,PressureMaxIn,PressureMinIn,WindSpeedMaxMPH,WindSpeedAvgMPH,GustSpeedMaxMPH,PrecipitationSumIn
2013-3-1,42.3,38.5,35.8,33.8,30.1,27.1,82,71,60,30.03,29.97,6,1,10,0.00
2013-3-2,40.1,36.1,32.5,32.0,27.2,22.5,87,70,58,30.09,29.97,7,2,10,0.00
2013-3-3,40.8,32.7,24.4,23.4,17.8,14.2,70,55,43,30.12,30.06,7,2,13,0.00
2013-3-4,53.6,36.7,21.4,29.1,23.7,15.7,87,62,37,30.21,30.00,6,1,10,0.00
2013-3-5,50.9,40.8,36.3,51.8,37.1,26.2,98,87,63,30.03,29.65,12,2,19,1.39
2013-3-6,37.0,34.6,31.8,29.0,27.1,25.1,84,74,70,30.27,29.91,10,3,17,0.00
2013-3-7,44.8,36.9,33.6,29.9,27.3,25.2,76,68,55,30.36,30.24,6,1,12,0.00
2013-3-8,57.2,40.8,27.9,32.0,26.5,22.8,85,60,35,30.39,30.27,10,2,12,0.00
2013-3-9,61.7,44.8,30.9,37.4,31.2,25.5,84,61,38,30.30,30.18,6,1,10,0.00
2013-3-10,72.3,55.2,39.2,42.8,35.4,29.9,85,52,25,30.18,30.00,10,2,22,0.00
2013-3-11,63.1,56.7,42.4,55.4,47.9,37.4,96,75,44,30.00,29.77,10,3,19,0.82
2013-3-12,57.4,44.9,36.5,39.2,32.4,28.8,88,63,40,30.12,29.94,6,2,10,0.00
2013-3-13,49.5,38.0,29.5,35.6,25.2,16.1,94,63,40,30.33,30.09,9,3,15,0.00
2013-3-14,51.3,38.9,26.6,29.1,19.9,13.6,61,47,35,30.41,30.27,7,2,12,0.00
2013-3-15,73.4,52.0,30.2,44.6,36.2,27.0,93,59,34,30.27,29.94,10,2,16,0.00
2013-3-16,77.5,66.1,56.5,48.2,44.2,39.2,57,45,34,29.94,29.79,10,4,16,0.00
2013-3-17,77.2,64.1,50.7,51.8,46.4,41.0,78,54,36,29.97,29.85,10,3,16,0.00
2013-3-18,62.6,57.4,52.0,57.2,53.5,46.4,98,86,61,29.91,29.77,12,3,19,1.05
2013-3-19,63.7,49.7,34.5,53.6,35.0,18.7,98,63,31,30.15,29.88,9,2,10,0.00
2013-3-20,61.3,45.1,31.3,28.6,22.7,17.4,63,43,29,30.15,29.91,7,2,16,0.00
2013-3-21,45.7,34.7,23.9,21.7,14.5,7.9,57,44,34,30.06,29.97,8,2,16,0.00
2013-3-22,46.4,37.0,26.4,26.2,19.2,13.0,61,49,40,30.09,30.00,7,0,9,0.00
2013-3-23,57.0,46.5,39.0,42.8,37.2,26.2,88,71,53,30.03,29.79,5,1,8,0.04
2013-3-24,61.2,49.1,41.5,57.2,46.3,32.0,98,89,62,29.82,29.44,14,2,18,0.81
2013-3-25,41.7,36.8,34.0,32.0,26.4,24.5,75,66,58,30.06,29.68,14,6,22,0.00
2013-3-26,43.3,36.9,33.6,29.9,25.8,23.5,79,64,51,30.30,30.06,7,2,10,0.00
2013-3-27,54.0,41.5,27.9,32.0,25.6,21.9,86,56,36,30.36,30.27,8,2,12,0.00
2013-3-28,62.4,43.2,27.5,33.8,26.3,19.8,89,55,30,30.36,30.24,9,1,14,0.00
2013-3-29,46.8,41.1,33.4,44.6,34.9,21.9,98,78,53,30.36,30.24,7,0,10,0.26
2013-3-30,59.5,49.8,43.0,51.8,46.2,42.8,98,88,63,30.24,30.03,5,0,10,0.35
2013-3-31,63.7,56.3,49.3,59.0,55.2,50.0,98,94,74,30.03,29.88,7,0,14,0.43